Starlink 4053

operational
NORAD ID: 53536 Int'l Des: 2022-101 Owner: SPXS Country: US Constellation: starlink
LEOCIRCULAR

About Starlink 4053

Description loading...

Live Position

Loading 3D Globe...

Upcoming Passes

Altitude History

Altitude vs Time

uPlot chart will show altitude changes over time

Two-Line Element Set

1 53536U 22101K 25257.37209821 .00001509 00000-0 11288-3 0 9999
2 53536 53.2158 135.5641 0001361 82.4216 277.6931 15.08846545169688
Epoch: Sep 14, 2025 • Age: 21 hours

Current Status

Altitude 543.9 km
Velocity 7.60 km/s
Sub-Earth Point 46.43°N, 100.39°E
Launch Date Aug 19, 2022
Age 3 years
Type internet

Technical Details

Classification Payload
Mass 300.00 kg
Dry Mass 290.00 kg
Total Mass 300.00 kg
Length 0.20 m
Diameter 2.80 m
Span 9.00 m
Shape Box + pan
Manufacturer SPXS
Bus Type Starlink
Phase Status In Orbit
Owner/State SPXS/US

Large Constellations

Loading constellations...